Regional Weather Roundup
Issued by NWS Cleveland, OH

Home | Current Version | Previous Version | Text Only | Print | Product List | Glossary Off
Versions: 1 2 3 4 5 6 7 8 9 10 11 12 13 14 15 16 17 18 19 20 21 22 23 24 25 26 27 28 29 30 31 32 33 34 35 36 37 38 39 40 41 42 43 44 45 46 47 48 49 50

000
ASUS41 KCLE 211800
RWRCLE
OHIO REGIONAL WEATHER ROUNDUP
NATIONAL WEATHER SERVICE WILMINGTON, OH
200 PM EDT THU AUG 21 2014

NOTE: "FAIR" INDICATES FEW OR NO CLOUDS BELOW 12,000 FEET WITH NO
SIGNIFICANT WEATHER AND/OR OBSTRUCTIONS TO VISIBILITY.

OHZ001>008-015>018-024>027-034-035-043-044-211900-
   NORTHWEST OHIO

CITY           SKY/WX    TMP DP  RH WIND       PRES   REMARKS
DEFIANCE       CLOUDY    77  70  79 S8        29.99F
FINDLAY        CLOUDY    75  69  81 S8        30.01F
TOLEDO EXPRESS CLOUDY    80  68  66 SW8       29.98
TOLEDO METCALF CLOUDY    81  67  62 SW13      30.00F
LIMA           CLOUDY    73  69  87 S9        30.04F
$$

OHZ009>014-019>023-028>033-038-089-211900-
   NORTHEAST OHIO

CITY           SKY/WX    TMP DP  RH WIND       PRES   REMARKS
CLE-HOPKINS    RAIN      75  67  76 SW7G21    30.02F
CLE-LAKEFRONT  PTSUNNY   76  70  82 N6        29.98F
CUY CO. ARPT   PTSUNNY   79  73  83 NW14      30.01F
LORAIN-ELYRIA  CLOUDY    83  69  62 SW15      30.02S
ASHTABULA      PTSUNNY   76  67  73 SW9       30.02S
AKRON-CANTON   CLOUDY    79  67  66 SW12      30.04S
WOOSTER        NOT AVBL
MANSFIELD      CLOUDY    74  68  81 SW8       30.06F
YOUNGSTOWN     CLOUDY    80  67  64 SW9       30.02F
$$

OHZ042-051>053-060>062-070>072-077>081-211900-
  SOUTHWEST OHIO

CITY           SKY/WX    TMP DP  RH WIND       PRES   REMARKS
CINC-COVINGTON CLOUDY    76  73  91 SE7       30.09F
CINC-LUNKEN    LGT RAIN  74  72  93 CALM      30.10R FOG
HAMILTON       CLOUDY    73  72  96 VRB3      30.11S FOG
DAYTON         NOT AVBL
WRIGHT-PAT AFB LGT RAIN  70  70 100 S6        30.09F FOG
DAYTON GENERAL LGT RAIN  71  69  93 S3        30.10F FOG
WILMINGTON     LGT RAIN  69  67  93 CALM      30.10F FOG
$$

OHZ036-037-039>041-045>050-054>059-063>069-073>076-082>088-211900-
  CENTRAL AND SOUTHEAST OHIO

CITY           SKY/WX    TMP DP  RH WIND       PRES   REMARKS
COLUMBUS       LGT RAIN  74  69  85 SW5       30.09F
OSU AIRPORT    LGT RAIN  72  70  93 SW5       30.09F FOG
BOLTON FIELD   LGT RAIN  72  72 100 S5        30.10F
RICKENBACK AFB NOT AVBL
NEWARK         LGT RAIN  72  69  90 SW7       30.09F FOG
MARION         LGT RAIN  71  68  90 SW9       30.06F FOG
LANCASTER      RAIN      72  69  90 CALM      30.11F FOG
ZANESVILLE     LGT RAIN  73  69  87 S7        30.10S FOG
NEW PHILLY     CLOUDY    75  70  84 S6        30.08R
$$


USA.gov is the U.S. government's official web portal to all federal, state and local government web resources and services.